Date_and_time,latitude,longitude,wind_speed,RelWindDirFrom,WindDirFrom,air_pressure,air_temperature,relative_humidity,Temp,platform_speed_wrt_ground,air_pressure_at_mean_sea_level,platform_orientation
2018-09-29 00:00,52.81786,-97.618965,4.9,13.4,311,992.88,1.6,56,9.14,0.0,1020.73,360.0
2018-09-29 00:10,52.8178716666667,-97.6189516666667,4.6,12.9,294,992.90,1.7,53,9.14,0.0,1020.77,360.0
2018-09-29 00:20,52.81787,-97.6189483333333,5.9,13.8,302,992.89,1.8,50,9.15,0.0,1020.75,360.0
2018-09-29 00:30,52.8178683333333,-97.618955,6.1,14.1,311,992.85,2.0,49,9.17,0.0,1020.68,360.0
2018-09-29 00:40,52.8178683333333,-97.618955,3.6,9.9,301,992.89,1.9,52,9.19,0.0,1020.72,360.0
2018-09-29 00:50,52.8178683333333,-97.618955,4.7,10.3,283,992.90,1.9,55,9.22,0.0,1020.75,360.0
2018-09-29 01:00,52.8178683333333,-97.618955,4.0,9.3,276,992.93,1.6,56,9.25,0.0,1020.80,360.0
2018-09-29 01:10,52.8178666666667,-97.618955,4.8,10.6,280,992.90,1.7,57,9.24,0.0,1020.76,360.0
2018-09-29 01:20,52.8178666666667,-97.6189566666667,5.7,10.9,273,992.84,1.6,56,9.25,0.0,1020.69,360.0
2018-09-29 01:30,52.8178666666667,-97.6189566666667,4.8,12.1,279,992.79,1.7,57,9.25,0.0,1020.64,360.0
2018-09-29 01:40,52.817865,-97.6189566666667,5.0,13.0,288,992.74,1.8,55,9.22,0.0,1020.58,360.0
2018-09-29 01:50,52.8178666666667,-97.6189583333333,4.5,10.3,272,992.65,1.9,56,9.21,0.0,1020.46,360.0
2018-09-29 02:00,52.8178666666667,-97.6189583333333,4.6,12.4,280,992.63,1.9,58,9.19,0.0,1020.44,360.0
2018-09-29 02:10,52.817865,-97.61896,4.6,10.5,277,992.66,1.9,57,9.15,0.0,1020.46,360.0
2018-09-29 02:20,52.817865,-97.61896,3.7,7.7,276,992.58,1.9,58,9.16,0.0,1020.37,360.0
2018-09-29 02:30,52.8178666666667,-97.61896,4.2,10.9,296,992.57,2.2,55,9.17,0.0,1020.35,360.0
2018-09-29 02:40,52.8178466666667,-97.6189516666667,4.8,12.9,281,992.55,2.3,58,9.18,0.0,1020.33,360.0
2018-09-29 02:50,52.8178516666667,-97.618955,6.1,12.6,278,992.59,2.1,59,9.17,0.0,1020.39,360.0
2018-09-29 03:00,52.8178533333333,-97.618955,3.5,10.4,279,992.56,2.1,60,9.13,0.0,1020.36,135.1
2018-09-29 03:10,52.817855,-97.618955,4.7,13.4,287,992.45,2.3,58,9.10,0.0,1020.24,135.1
2018-09-29 03:20,52.8178566666667,-97.618955,4.6,11.5,278,992.49,2.3,56,9.06,0.0,1020.27,135.1
2018-09-29 03:30,52.8178583333333,-97.6189583333333,3.6,10.3,274,992.46,2.2,56,9.04,0.0,1020.24,135.1
2018-09-29 03:40,52.81786,-97.618955,5.2,12.8,288,992.40,2.4,56,9.06,0.0,1020.18,135.1
2018-09-29 03:50,52.817855,-97.6189566666667,5.9,11.4,275,992.46,2.4,54,9.09,0.0,1020.23,135.1
2018-09-29 04:00,52.8178566666667,-97.6189566666667,5.4,10.9,268,992.45,2.3,55,9.09,0.0,1020.22,360.0
2018-09-29 04:10,52.8178583333333,-97.6189566666667,4.8,10.9,286,992.47,2.4,54,9.06,0.0,1020.24,360.0
2018-09-29 04:20,52.8178583333333,-97.6189566666667,4.3,8.4,272,992.42,2.3,55,9.00,0.0,1020.18,360.0
2018-09-29 04:30,52.81786,-97.61896,3.6,10.7,287,992.38,2.4,56,8.93,0.0,1020.13,360.0
2018-09-29 04:40,52.8178666666667,-97.6189683333333,4.9,9.8,274,992.33,2.4,54,8.88,0.0,1020.09,360.0
2018-09-29 04:50,52.8178566666667,-97.6189633333333,4.1,8.0,272,992.30,2.4,53,8.86,0.0,1020.06,360.0
2018-09-29 05:00,52.8178566666667,-97.6189616666667,6.2,13.4,262,992.26,2.4,55,8.85,0.0,1020.00,360.0
2018-09-29 05:10,52.8178566666667,-97.618965,3.6,7.2,270,992.29,2.4,54,8.83,0.0,1020.03,360.0
2018-09-29 05:20,52.8178583333333,-97.6189683333333,4.5,9.2,268,992.34,2.3,55,8.82,0.0,1020.09,360.0
2018-09-29 05:30,52.8178583333333,-97.6189683333333,4.5,9.4,281,992.33,2.3,55,8.81,0.0,1020.08,360.0
2018-09-29 05:40,52.817865,-97.618955,4.0,8.0,282,992.32,2.3,54,8.80,0.0,1020.07,360.0
2018-09-29 05:50,52.817865,-97.618975,4.3,10.8,276,992.32,2.3,53,8.79,0.0,1020.07,360.0
2018-09-29 06:00,52.817865,-97.618975,3.8,8.1,281,992.33,2.3,54,8.78,0.0,1020.07,329.2
2018-09-29 06:10,52.81786,-97.6189733333333,4.4,9.3,277,992.34,2.3,53,8.80,0.0,1020.09,329.2
2018-09-29 06:20,52.8178283333333,-97.6189666666667,4.6,10.4,282,992.32,2.3,52,8.82,0.0,1020.07,329.2
2018-09-29 06:30,52.817865,-97.61899,4.1,9.0,280,992.29,2.3,53,8.82,0.0,1020.03,329.2
2018-09-29 06:40,52.817855,-97.6189766666667,4.8,10.9,260,992.27,2.3,53,8.80,0.0,1020.01,329.2
2018-09-29 06:50,52.8178566666667,-97.6189716666667,5.0,11.8,259,992.23,2.4,54,8.77,0.0,1019.97,329.2
2018-09-29 07:00,52.8178583333333,-97.6189716666667,4.9,10.9,264,992.26,2.4,56,8.75,0.0,1020.00,270.0
2018-09-29 07:10,52.8178566666667,-97.6189716666667,5.8,11.4,259,992.26,2.5,54,8.73,0.0,1020.01,270.0
2018-09-29 07:20,52.8178566666667,-97.6189683333333,4.0,8.0,266,992.24,2.5,55,8.71,0.0,1019.98,270.0
2018-09-29 07:30,52.8178566666667,-97.6189666666667,4.7,10.3,272,992.23,2.4,54,8.71,0.0,1019.97,270.0
2018-09-29 07:40,52.8178583333333,-97.6189466666667,5.0,12.2,268,992.19,2.5,54,8.71,0.0,1019.93,270.0
2018-09-29 07:50,52.8178616666667,-97.6189583333333,3.8,10.7,272,992.18,2.5,53,8.70,0.0,1019.92,270.0
2018-09-29 08:00,52.81786,-97.6189616666667,3.9,8.0,274,992.13,2.5,54,8.70,0.0,1019.87,90.0
2018-09-29 08:10,52.8178566666667,-97.618965,4.9,12.1,264,992.09,2.5,55,8.69,0.0,1019.82,90.0
2018-09-29 08:20,52.8178583333333,-97.618965,4.9,11.0,275,992.08,2.5,55,8.69,0.0,1019.81,90.0
2018-09-29 08:30,52.8178716666667,-97.6189566666667,4.3,8.5,273,991.99,2.5,55,8.69,0.0,1019.72,90.0
2018-09-29 08:40,52.8178683333333,-97.618955,4.2,10.8,272,991.91,2.5,55,8.69,0.0,1019.63,90.0
2018-09-29 08:50,52.817865,-97.6189616666667,4.4,11.4,268,991.78,2.6,54,8.69,0.0,1019.50,90.0
2018-09-29 09:00,52.817865,-97.6189666666667,4.6,10.6,267,991.72,2.6,54,8.68,0.0,1019.44,90.0
2018-09-29 09:10,52.8178483333333,-97.6189783333333,5.2,14.1,265,991.72,2.6,55,8.67,0.0,1019.43,90.0
2018-09-29 09:20,52.817855,-97.6189566666667,5.6,12.8,264,991.70,2.7,55,8.65,0.0,1019.41,90.0
2018-09-29 09:30,52.8178583333333,-97.618965,5.7,15.2,272,991.69,2.6,55,8.64,0.0,1019.40,90.0
2018-09-29 09:40,52.8178566666667,-97.6189633333333,7.8,15.8,258,991.65,2.7,55,8.63,0.0,1019.36,90.0
2018-09-29 09:50,52.8178566666667,-97.6189633333333,7.4,13.3,258,991.66,2.8,54,8.63,0.0,1019.36,90.0
2018-09-29 10:00,52.8178566666667,-97.618965,7.2,13.9,255,991.60,2.8,54,8.63,0.0,1019.29,90.0
2018-09-29 10:10,52.8178566666667,-97.6189633333333,7.5,14.6,262,991.56,2.8,53,8.63,0.0,1019.25,90.0
2018-09-29 10:20,52.8178566666667,-97.6189633333333,5.4,11.6,269,991.55,2.7,53,8.63,0.0,1019.25,90.0
2018-09-29 10:30,52.8178583333333,-97.6189633333333,5.9,12.9,260,991.46,2.8,53,8.63,0.0,1019.15,90.0
2018-09-29 10:40,52.8178566666667,-97.6189633333333,7.1,13.1,256,991.38,2.9,53,8.63,0.0,1019.06,90.0
2018-09-29 10:50,52.8178566666667,-97.6189616666667,7.6,15.0,254,991.36,3.0,55,8.63,0.0,1019.04,90.0
2018-09-29 11:00,52.8178566666667,-97.6189616666667,7.6,12.6,252,991.31,3.1,54,8.61,0.0,1018.97,90.0
2018-09-29 11:10,52.8178566666667,-97.61896,7.4,14.5,253,991.26,3.1,54,8.59,0.0,1018.93,90.0
2018-09-29 11:20,52.8178566666667,-97.61896,6.3,13.4,245,991.19,3.2,56,8.58,0.0,1018.85,90.0
2018-09-29 11:30,52.8178566666667,-97.61896,8.6,16.8,247,991.10,3.3,54,8.58,0.0,1018.75,90.0
2018-09-29 11:40,52.8178566666667,-97.61896,7.8,13.2,252,991.06,3.2,54,8.59,0.0,1018.70,90.0
2018-09-29 11:50,52.8178566666667,-97.61896,8.1,15.3,246,991.07,3.3,55,8.58,0.0,1018.71,90.0
2018-09-29 12:00,52.8178566666667,-97.61896,7.9,13.8,245,991.04,3.4,55,8.58,0.0,1018.67,135.1
2018-09-29 12:10,52.8178566666667,-97.61896,9.5,19.0,243,990.95,3.5,57,8.58,0.0,1018.59,135.1
2018-09-29 12:20,52.8164966666667,-97.6179666666667,8.9,17.6,259,990.88,3.6,54,8.56,0.5,1018.50,135.1
2018-09-29 12:30,52.812925,-97.6170733333333,15.4,20.3,252,990.49,4.0,55,9.57,1.3,1018.08,135.1
2018-09-29 12:40,52.8128466666667,-97.6170083333333,14.9,20.4,246,990.31,4.0,56,10.23,0.0,1017.88,135.1
2018-09-29 12:50,52.81293,-97.6171916666667,15.3,19.0,242,990.20,4.0,55,10.32,0.1,1017.77,135.1
2018-09-29 13:00,52.7932483333333,-97.6032966666667,16.9,25.9,220,990.33,4.1,54,10.42,7.7,1017.89,158.9
2018-09-29 13:10,52.7656683333333,-97.5832,20.1,27.5,216,990.22,4.2,55,10.65,10.9,1017.78,158.9
2018-09-29 13:20,52.73813,-97.5629283333333,21.0,27.1,222,990.21,4.3,56,10.84,10.9,1017.76,158.9
2018-09-29 13:30,52.7104916666667,-97.5430166666667,20.0,24.2,222,990.32,4.3,56,10.93,10.9,1017.87,158.9
2018-09-29 13:40,52.68288,-97.5229333333333,19.9,24.6,220,990.30,4.2,57,10.96,10.9,1017.85,158.9
2018-09-29 13:50,52.655505,-97.50264,21.3,26.0,216,990.19,4.2,59,10.98,10.8,1017.74,158.9
2018-09-29 14:00,52.62786,-97.4827416666667,20.8,26.2,220,990.30,4.2,59,10.96,10.9,1017.84,156.5
2018-09-29 14:10,52.6001566666667,-97.4624383333333,20.7,25.9,228,990.41,4.3,59,10.93,10.9,1017.95,156.5
2018-09-29 14:20,52.57274,-97.4409933333333,20.6,25.1,226,990.51,4.2,61,10.88,10.9,1018.03,156.5
2018-09-29 14:30,52.545125,-97.420365,20.3,24.7,229,990.62,4.2,60,10.83,10.9,1018.14,156.5
2018-09-29 14:40,52.5177183333333,-97.3990383333333,18.9,23.0,230,990.72,4.3,60,10.76,10.9,1018.25,156.5
2018-09-29 14:50,52.49013,-97.3784333333333,18.8,22.9,228,990.82,4.3,58,10.69,10.9,1018.34,156.5
2018-09-29 15:00,52.46557,-97.3498366666667,16.3,22.0,216,990.99,4.3,59,10.23,10.8,1018.51,155.0
2018-09-29 15:10,52.44237,-97.3180116666667,14.9,20.6,216,991.08,4.4,58,10.29,10.9,1018.59,155.0
2018-09-29 15:20,52.4199266666667,-97.2843583333333,13.9,18.2,223,991.21,4.2,60,10.24,10.9,1018.73,155.0
2018-09-29 15:30,52.3972,-97.25217,14.0,17.9,226,991.30,4.1,58,9.87,10.8,1018.84,155.0
2018-09-29 15:40,52.3736766666667,-97.222275,13.7,17.5,228,991.36,4.1,60,9.69,10.7,1018.90,155.0
2018-09-29 15:50,52.3493,-97.1949866666667,13.8,21.1,226,991.34,4.2,58,9.82,10.6,1018.88,155.0
2018-09-29 16:00,52.3195,-97.1948866666667,19.0,22.8,238,991.12,4.2,58,9.83,10.7,1018.64,152.2
2018-09-29 16:10,52.2896616666667,-97.1943883333333,20.0,24.6,239,991.13,4.3,56,9.91,10.7,1018.65,152.2
2018-09-29 16:20,52.259775,-97.1937566666667,19.8,26.1,239,991.20,4.3,56,9.61,10.8,1018.72,152.2
2018-09-29 16:30,52.2299366666667,-97.1930666666667,20.1,24.9,236,991.20,4.4,57,9.81,10.7,1018.72,152.2
2018-09-29 16:40,52.2003916666667,-97.1893,20.1,24.6,232,991.22,4.6,57,9.96,10.7,1018.72,152.2
2018-09-29 16:50,52.173065,-97.1690816666667,17.5,24.3,221,991.44,4.6,57,10.16,10.8,1018.95,152.2
2018-09-29 17:00,52.145975,-97.1478566666667,18.3,22.0,217,991.51,4.5,58,10.15,10.8,1019.02,156.9
2018-09-29 17:10,52.1186566666667,-97.126845,17.2,22.0,222,991.57,4.6,56,10.25,10.9,1019.09,156.9
2018-09-29 17:20,52.0912483333333,-97.10617,18.5,22.7,215,991.47,4.7,55,10.25,10.9,1018.99,156.9
2018-09-29 17:30,52.0638533333333,-97.0855716666667,17.6,21.0,210,991.53,4.8,57,10.29,10.9,1019.04,156.9
2018-09-29 17:40,52.0360616666667,-97.0670583333333,17.3,22.1,209,991.54,4.7,57,10.35,10.8,1019.05,156.9
2018-09-29 17:50,52.0083416666667,-97.0483333333333,16.9,21.1,206,991.54,4.7,56,10.44,10.8,1019.06,156.9
2018-09-29 18:00,51.9812116666667,-97.028,16.6,21.4,203,991.51,4.8,55,10.36,10.8,1019.02,157.7
2018-09-29 18:10,51.9540233333333,-97.0075766666667,14.3,18.3,196,991.53,4.9,54,10.05,10.8,1019.03,157.7
2018-09-29 18:20,51.926825,-96.9867983333333,13.8,18.5,190,991.47,5.0,53,10.26,10.8,1018.96,157.7
2018-09-29 18:30,51.8997366666667,-96.9658066666667,14.5,18.7,195,991.44,5.1,53,10.38,10.8,1018.90,157.7
2018-09-29 18:40,51.8729066666667,-96.9441066666667,14.2,19.0,197,991.38,5.3,51,10.48,10.8,1018.84,157.7
2018-09-29 18:50,51.8460116666667,-96.9233533333333,16.6,21.1,203,991.22,5.7,51,10.53,10.7,1018.65,157.7
2018-09-29 19:00,51.818765,-96.9037083333333,15.3,18.9,200,991.23,5.7,49,10.80,10.7,1018.67,160.2
2018-09-29 19:10,51.7918583333333,-96.88516,15.5,19.6,205,991.23,5.9,48,10.99,10.5,1018.65,160.2
2018-09-29 19:20,51.7691516666667,-96.8573083333333,14.9,19.7,189,991.16,6.1,46,11.04,10.3,1018.57,160.2
2018-09-29 19:30,51.744045,-96.83502,14.8,19.1,202,991.15,6.3,46,11.08,10.3,1018.55,160.2
2018-09-29 19:40,51.7185283333333,-96.8117383333333,14.7,22.5,201,991.05,6.5,44,11.20,10.6,1018.43,160.2
2018-09-29 19:50,51.6925783333333,-96.7886783333333,16.8,23.0,196,990.93,6.6,45,11.30,10.7,1018.30,160.2
2018-09-29 20:00,51.6662783333333,-96.7668633333333,15.8,24.2,200,990.98,6.8,43,11.37,10.6,1018.34,153.7
2018-09-29 20:10,51.63986,-96.744175,16.7,21.7,204,991.01,7.0,44,11.35,10.8,1018.35,153.7
2018-09-29 20:20,51.6135133333333,-96.7210366666667,14.2,22.5,210,991.01,7.1,43,11.14,10.8,1018.34,153.7
2018-09-29 20:30,51.585515,-96.703675,17.1,25.2,214,990.82,7.2,40,10.93,10.8,1018.14,153.7
2018-09-29 20:40,51.5569166666667,-96.69044,16.7,23.1,217,990.80,7.2,41,10.64,10.7,1018.09,153.7
2018-09-29 20:50,51.5284683333333,-96.67625,15.5,19.5,214,990.76,7.2,42,10.49,10.7,1018.05,153.7
2018-09-29 21:00,51.5002183333333,-96.6599366666667,16.9,20.9,220,990.71,7.3,41,10.46,10.8,1017.99,154.5
2018-09-29 21:10,51.471345,-96.6449983333333,16.9,22.5,221,990.69,7.4,41,10.48,10.9,1017.95,154.5
2018-09-29 21:20,51.442235,-96.6303516666667,17.6,21.5,223,990.61,7.6,42,10.53,11.0,1017.85,154.5
2018-09-29 21:30,51.4130116666667,-96.6159266666667,18.9,23.7,218,990.54,7.6,40,10.46,11.0,1017.76,154.5
2018-09-29 21:40,51.383775,-96.6019416666667,20.2,26.9,223,990.49,7.9,40,10.41,11.0,1017.70,154.5
2018-09-29 21:50,51.3548833333333,-96.5873966666667,18.9,23.7,215,990.57,7.9,40,10.77,10.9,1017.78,154.5
2018-09-29 22:00,51.3264083333333,-96.5965416666667,19.2,24.7,220,990.38,7.8,40,10.92,10.5,1017.57,158.7
2018-09-29 22:10,51.2984016666667,-96.6133,21.3,26.0,225,990.06,7.9,40,10.76,10.8,1017.23,158.7
2018-09-29 22:20,51.270285,-96.6296466666667,21.7,27.7,226,989.97,8.2,39,10.90,10.8,1017.12,158.7
2018-09-29 22:30,51.2420883333333,-96.6235966666667,18.5,24.0,217,990.38,8.3,41,10.90,10.2,1017.53,158.7
2018-09-29 22:40,51.213255,-96.6073666666667,16.8,20.9,204,990.52,8.0,41,10.75,11.0,1017.69,158.7
2018-09-29 22:50,51.185015,-96.599665,14.5,19.6,202,990.54,8.0,41,10.70,10.3,1017.71,158.7
2018-09-29 23:00,51.1583683333333,-96.61773,18.8,22.8,223,990.28,7.8,42,10.83,10.4,1017.44,169.6
2018-09-29 23:10,51.1289083333333,-96.6260216666667,16.9,22.4,222,990.32,7.8,44,10.77,10.8,1017.48,169.6
2018-09-29 23:20,51.0989866666667,-96.63429,15.9,19.7,220,990.43,7.6,44,10.72,10.9,1017.59,169.6
2018-09-29 23:30,51.0688333333333,-96.64181,15.7,19.8,220,990.55,7.7,43,10.92,11.0,1017.70,169.6
2018-09-29 23:40,51.038765,-96.64983,15.5,20.4,222,990.57,7.8,42,11.01,11.0,1017.73,169.6
